Emerado, ND

2:29 AM CST on January 20, 2017 (GMT -0600)
Grand Forks International

Weather History for KGFK - November, 2014

Change the Weather History Date:

Tuesday, November 25, 2014

  Actual Average Record
Temperature  
Mean Temperature 16 °F 20 °F  
Max Temperature 22 °F 29 °F 51 °F (1984)
Min Temperature 9 °F 12 °F -19 °F (1996)
Degree Days  
Heating Degree Days 49 45  
Month to date heating degree days 1018 937  
Since 1 July heating degree days 1841 1968  
Cooling Degree Days 0 0  
Month to date cooling degree days 0 0  
Year to date cooling degree days 395 379  
Moisture  
Dew Point 11 °F    
Average Humidity 81    
Maximum Humidity 88    
Minimum Humidity 73    
Precipitation  
Precipitation 0.02 in 0.02 in 0.60 in (1958)
Month to date precipitation 0.26 0.84  
Year to date precipitation 22.60 20.09  
Snow  
Snow 0.60 in 0.40 in 11.30 in (1985)
Month to date snowfall 3.4 6.1  
Since 1 July snowfall 3.4 7.6  
Since 1 September snowfall 3.4 7.6  
Snow Depth 1.00 in    
Sea Level Pressure  
Sea Level Pressure 30.03 in    
Wind  
Wind Speed 8 mph (ENE)    
Max Wind Speed 21 mph    
Max Gust Speed 24 mph    
Visibility 7 miles    
Events Snow    
T = Trace of Precipitation, MM = Missing Value Source: NWS Daily Summary

Daily Weather History Graph

Daily Weather History Graph

Search for Another Location

Airport or City:

Trip Planner

Search our weather history database for the weather conditions in past years. The results will help you decide how hot, cold, wet, or windy it might be!

Date:

Astronomy

Nov. 25, 2014 Rise Set
Actual Time 7:49 AM CST 4:41 PM CST
Civil Twilight 7:14 AM CST 5:16 PM CST
Nautical Twilight 6:36 AM CST 5:55 PM CST
Astronomical Twilight 5:58 AM CST 6:32 PM CST
Moon 10:32 AM CST (11/25) 8:11 PM CST (11/25)
Length of Visible Light 10h 02m
Length of Day
8h 52m
Waxing Crescent, 13% of the Moon is Illuminated
Nov 25
Waxing Crescent
Nov 29
First Quarter
Dec 6
Full
Dec 14
Last Quarter
Dec 21
New

Hourly Weather History & Observations

Time (CST) Temp. Windchill Dew Point Humidity Pressure Visibility Wind Dir Wind Speed Gust Speed Precip Events Conditions
12:53 AM 14.0 °F 6.5 °F 7.0 °F 74% 30.03 in 10.0 mi South 4.6 mph - N/A   Overcast
1:53 AM 15.1 °F 9.4 °F 8.1 °F 74% 30.04 in 10.0 mi South 3.5 mph - N/A   Overcast
2:53 AM 16.0 °F 7.4 °F 9.0 °F 74% 30.02 in 10.0 mi South 5.8 mph - N/A   Overcast
3:53 AM 18.0 °F 8.7 °F 10.9 °F 74% 30.02 in 10.0 mi SSW 6.9 mph - N/A   Overcast
4:53 AM 18.0 °F 9.8 °F 12.0 °F 78% 30.01 in 10.0 mi South 5.8 mph - N/A   Overcast
5:50 AM 14.0 °F 6.5 °F 8.6 °F 79% 29.94 in 10.0 mi South 4.6 mph - N/A   Mostly Cloudy
5:53 AM 14.0 °F 6.5 °F 8.1 °F 77% 30.00 in 10.0 mi South 4.6 mph - N/A   Mostly Cloudy
6:31 AM 10.4 °F 4.0 °F 6.8 °F 85% 29.94 in 10.0 mi South 3.5 mph - N/A   Scattered Clouds
6:44 AM 12.2 °F 4.3 °F 8.6 °F 85% 29.95 in 10.0 mi SSW 4.6 mph - N/A   Mostly Cloudy
6:53 AM 12.0 °F 2.7 °F 7.0 °F 80% 30.01 in 10.0 mi SSW 5.8 mph - N/A   Mostly Cloudy
7:09 AM 12.2 °F 4.3 °F 6.8 °F 79% 29.95 in 10.0 mi SSW 4.6 mph - N/A   Scattered Clouds
7:53 AM 10.0 °F 3.6 °F 6.1 °F 84% 30.02 in 10.0 mi South 3.5 mph - N/A   Scattered Clouds
8:24 AM 12.2 °F - 6.8 °F 79% 29.95 in 10.0 mi Calm Calm - N/A   Mostly Cloudy
8:53 AM 15.1 °F 9.4 °F 10.0 °F 80% 30.01 in 10.0 mi SSE 3.5 mph - N/A   Overcast
9:53 AM 19.0 °F - 12.9 °F 77% 30.02 in 10.0 mi Calm Calm - N/A   Overcast
10:53 AM 19.9 °F 13.4 °F 12.9 °F 74% 30.03 in 10.0 mi ESE 4.6 mph - N/A   Overcast
11:53 AM 21.9 °F 14.5 °F 15.1 °F 75% 30.01 in 10.0 mi East 5.8 mph - N/A   Overcast
12:53 PM 21.9 °F 14.5 °F 15.1 °F 75% 29.99 in 10.0 mi East 5.8 mph - N/A   Overcast
1:53 PM 21.9 °F 15.7 °F 15.1 °F 75% 29.99 in 10.0 mi ENE 4.6 mph - N/A   Overcast
2:53 PM 21.9 °F 12.5 °F 15.1 °F 75% 29.98 in 10.0 mi ENE 8.1 mph - N/A   Overcast
3:53 PM 21.2 °F 9.5 °F 15.8 °F 80% 29.95 in 10.0 mi NE 11.5 mph - N/A   Overcast
4:53 PM 19.9 °F 7.9 °F 14.0 °F 78% 30.01 in 10.0 mi NE 11.5 mph - N/A   Overcast
5:53 PM 21.0 °F 9.3 °F 16.0 °F 81% 30.03 in 10.0 mi NNE 11.5 mph - N/A   Overcast
6:47 PM 19.4 °F 6.0 °F 14.0 °F 80% 30.00 in 1.8 mi North 13.8 mph - 0.00 in Snow Light Snow
6:48 PM 19.0 °F 5.6 °F 14.0 °F 81% 30.06 in 1.5 mi North 13.8 mph - 0.00 in Snow Light Snow
7:11 PM 19.4 °F 6.6 °F 14.0 °F 80% 30.01 in 1.5 mi NNE 12.7 mph - 0.00 in Snow Light Snow
7:22 PM 19.4 °F 6.6 °F 15.8 °F 86% 30.01 in 2.5 mi North 12.7 mph - 0.00 in Snow Light Snow
7:53 PM 18.0 °F 4.2 °F 14.0 °F 84% 30.08 in 2.5 mi North 13.8 mph - 0.01 in Snow Light Snow
8:10 PM 17.6 °F 3.2 °F 14.0 °F 86% 30.04 in 1.5 mi North 15.0 mph - 0.00 in Snow Light Snow
8:25 PM 17.6 °F 3.2 °F 12.2 °F 79% 30.05 in 2.5 mi North 15.0 mph - 0.00 in Snow Light Snow
8:53 PM 16.0 °F 0.1 °F 12.0 °F 84% 30.12 in 2.0 mi North 17.3 mph - 0.01 in Snow Light Snow
9:20 PM 15.8 °F -1.1 °F 10.4 °F 79% 30.08 in 1.8 mi North 19.6 mph - 0.00 in Snow Light Snow
9:42 PM 15.8 °F -0.2 °F 10.4 °F 79% 30.09 in 3.0 mi North 17.3 mph - 0.00 in Snow Light Snow
9:53 PM 14.0 °F -3.4 °F 10.0 °F 84% 30.15 in 7.0 mi North 19.6 mph - 0.00 in Snow Light Snow
10:53 PM 12.0 °F -4.0 °F 8.1 °F 84% 30.19 in 5.0 mi North 15.0 mph - 0.00 in Snow Light Snow
11:53 PM 10.9 °F -5.9 °F 6.1 °F 81% 30.22 in 5.0 mi North 16.1 mph - 0.00 in Snow Light Snow